When you browse on this site, cookies collect data to enhance your experience and personalize the content and advertising you see.
Visit our Privacy Policy to learn more. By continuing to use the site, you agree to this use of cookies and data.
  • In Deutschland
  • Länderverzeichnis
  • Für 7 Tage
  • Wassertemperatur
  • Satellitenkarten
  • Wetterkarte
  • Widgets
  • user-avatar
    Anmelden

    Stündliche Wetter Albany

    Heute, 16 Januar, Mittwoch

    Zeit Temperatur Niederschläge Wind Luftdruck Luftfeuchtigkeit
    00:00 +15°C° 0 mm 1 m/S 756 mmHg 81%
    01:00 +13°C° 0 mm 0 m/S 756 mmHg 82%
    02:00 +13°C° 0 mm 0 m/S 756 mmHg 83%
    03:00 +12°C° 0 mm 0 m/S 756 mmHg 84%
    04:00 +13°C° 0 mm 1 m/S 756 mmHg 85%
    05:00 +13°C° 0 mm 1 m/S 755 mmHg 86%
    06:00 +15°C° 0 mm 1 m/S 756 mmHg 77%
    07:00 +18°C° 0 mm 1 m/S 756 mmHg 68%
    08:00 +20°C° 0 mm 1 m/S 756 mmHg 59%
    09:00 +21°C° 0 mm 2 m/S 756 mmHg 54%
    10:00 +22°C° 0 mm 3 m/S 755 mmHg 49%
    11:00 +24°C° 0 mm 3 m/S 755 mmHg 44%
    12:00 +25°C° 0 mm 4 m/S 755 mmHg 45%
    13:00 +25°C° 0 mm 4 m/S 754 mmHg 45%
    14:00 +25°C° 0 mm 5 m/S 754 mmHg 46%
    15:00 +23°C° 0 mm 5 m/S 754 mmHg 49%
    16:00 +23°C° 0 mm 6 m/S 754 mmHg 53%
    17:00 +22°C° 0 mm 6 m/S 753 mmHg 57%
    18:00 +21°C° 0 mm 5 m/S 754 mmHg 63%
    19:00 +19°C° 0 mm 4 m/S 754 mmHg 69%
    20:00 +18°C° 0 mm 3 m/S 754 mmHg 76%
    21:00 +17°C° 0 mm 3 m/S 754 mmHg 79%
    22:00 +17°C° 0 mm 3 m/S 755 mmHg 82%
    23:00 +17°C° 0 mm 2 m/S 755 mmHg 85%

    Morgen, 17 Januar, Donnerstag

    Zeit Temperatur Niederschläge Wind Luftdruck Luftfeuchtigkeit
    00:00 +16°C° 0 mm 3 m/S 755 mmHg 86%
    01:00 +16°C° 0 mm 3 m/S 754 mmHg 87%
    02:00 +16°C° 0 mm 3 m/S 754 mmHg 87%
    03:00 +16°C° 0 mm 3 m/S 754 mmHg 89%
    04:00 +16°C° 0 mm 3 m/S 754 mmHg 90%
    05:00 +14°C° 0 mm 4 m/S 754 mmHg 91%
    06:00 +17°C° 0.1 mm 4 m/S 755 mmHg 85%
    07:00 +19°C° 0.1 mm 4 m/S 755 mmHg 78%
    08:00 +20°C° 0.1 mm 4 m/S 755 mmHg 71%
    09:00 +21°C° 0.1 mm 4 m/S 756 mmHg 70%
    10:00 +21°C° 0.1 mm 4 m/S 756 mmHg 68%
    11:00 +21°C° 0.1 mm 5 m/S 756 mmHg 67%
    12:00 +21°C° 0 mm 5 m/S 756 mmHg 65%
    13:00 +21°C° 0 mm 5 m/S 756 mmHg 63%
    14:00 +22°C° 0 mm 5 m/S 756 mmHg 62%
    15:00 +21°C° 0 mm 6 m/S 756 mmHg 62%
    16:00 +21°C° 0 mm 6 m/S 756 mmHg 63%
    17:00 +21°C° 0 mm 6 m/S 756 mmHg 63%
    18:00 +20°C° 0 mm 5 m/S 756 mmHg 67%
    19:00 +19°C° 0 mm 4 m/S 757 mmHg 71%
    20:00 +17°C° 0 mm 4 m/S 757 mmHg 75%
    21:00 +17°C° 0 mm 3 m/S 758 mmHg 77%
    22:00 +16°C° 0 mm 3 m/S 758 mmHg 78%
    23:00 +16°C° 0 mm 2 m/S 759 mmHg 80%

    übermorgen, 18 Januar, Freitag

    Zeit Temperatur Niederschläge Wind Luftdruck Luftfeuchtigkeit
    00:00 +15°C° 0 mm 2 m/S 759 mmHg 81%
    01:00 +15°C° 0 mm 2 m/S 759 mmHg 81%
    02:00 +15°C° 0 mm 1 m/S 759 mmHg 82%
    03:00 +14°C° 0 mm 1 m/S 759 mmHg 83%
    04:00 +14°C° 0 mm 1 m/S 759 mmHg 84%
    05:00 +14°C° 0 mm 1 m/S 759 mmHg 85%
    06:00 +16°C° 0 mm 1 m/S 760 mmHg 76%
    07:00 +19°C° 0 mm 1 m/S 760 mmHg 67%
    08:00 +21°C° 0 mm 1 m/S 761 mmHg 58%
    09:00 +23°C° 0 mm 1 m/S 761 mmHg 52%
    10:00 +25°C° 0 mm 2 m/S 761 mmHg 46%
    11:00 +26°C° 0 mm 2 m/S 761 mmHg 40%
    12:00 +27°C° 0 mm 3 m/S 760 mmHg 40%
    13:00 +27°C° 0 mm 4 m/S 760 mmHg 40%
    14:00 +28°C° 0 mm 4 m/S 760 mmHg 40%
    15:00 +27°C° 0 mm 4 m/S 760 mmHg 44%
    16:00 +26°C° 0 mm 5 m/S 759 mmHg 48%
    17:00 +25°C° 0 mm 5 m/S 759 mmHg 52%
    18:00 +22°C° 0 mm 5 m/S 760 mmHg 58%
    19:00 +20°C° 0 mm 4 m/S 760 mmHg 64%
    20:00 +19°C° 0 mm 4 m/S 760 mmHg 70%
    21:00 +18°C° 0 mm 4 m/S 761 mmHg 73%
    22:00 +18°C° 0 mm 4 m/S 761 mmHg 76%
    23:00 +17°C° 0 mm 4 m/S 761 mmHg 78%

    19 Januar, Samstag

    Zeit Temperatur Niederschläge Wind Luftdruck Luftfeuchtigkeit
    00:00 +17°C° 0 mm 4 m/S 761 mmHg 79%
    01:00 +17°C° 0 mm 4 m/S 760 mmHg 79%
    02:00 +15°C° 0 mm 4 m/S 760 mmHg 79%
    03:00 +15°C° 0 mm 4 m/S 760 mmHg 77%
    04:00 +15°C° 0 mm 4 m/S 760 mmHg 74%
    05:00 +15°C° 0 mm 4 m/S 760 mmHg 72%
    06:00 +18°C° 0 mm 4 m/S 760 mmHg 60%
    07:00 +21°C° 0 mm 4 m/S 760 mmHg 48%
    08:00 +23°C° 0 mm 4 m/S 760 mmHg 37%
    09:00 +27°C° 0 mm 4 m/S 760 mmHg 32%
    10:00 +30°C° 0 mm 4 m/S 760 mmHg 27%
    11:00 +34°C° 0 mm 3 m/S 759 mmHg 22%
    12:00 +35°C° 0 mm 4 m/S 759 mmHg 23%
    13:00 +36°C° 0 mm 4 m/S 758 mmHg 23%
    14:00 +36°C° 0 mm 5 m/S 758 mmHg 23%
    15:00 +35°C° 0 mm 5 m/S 757 mmHg 26%
    16:00 +34°C° 0 mm 6 m/S 757 mmHg 28%
    17:00 +33°C° 0 mm 6 m/S 757 mmHg 31%
    18:00 +29°C° 0 mm 5 m/S 757 mmHg 39%
    19:00 +27°C° 0 mm 4 m/S 758 mmHg 46%
    20:00 +23°C° 0 mm 4 m/S 758 mmHg 53%
    21:00 +22°C° 0 mm 3 m/S 758 mmHg 58%
    22:00 +21°C° 0 mm 3 m/S 758 mmHg 63%
    23:00 +20°C° 0 mm 3 m/S 758 mmHg 67%

    20 Januar, Sonntag

    Zeit Temperatur Niederschläge Wind Luftdruck Luftfeuchtigkeit
    00:00 +20°C° 0 mm 3 m/S 758 mmHg 68%
    01:00 +20°C° 0 mm 3 m/S 757 mmHg 69%
    02:00 +19°C° 0 mm 3 m/S 757 mmHg 70%
    03:00 +19°C° 0 mm 3 m/S 757 mmHg 70%
    04:00 +19°C° 0 mm 2 m/S 756 mmHg 70%
    05:00 +19°C° 0 mm 2 m/S 756 mmHg 70%
    06:00 +23°C° 0 mm 2 m/S 756 mmHg 59%
    07:00 +26°C° 0 mm 2 m/S 757 mmHg 48%
    08:00 +28°C° 0 mm 2 m/S 757 mmHg 38%
    09:00 +33°C° 0 mm 3 m/S 756 mmHg 31%
    10:00 +37°C° 0 mm 3 m/S 756 mmHg 25%
    11:00 +40°C° 0 mm 3 m/S 756 mmHg 18%
    12:00 +40°C° 0 mm 3 m/S 755 mmHg 20%
    13:00 +40°C° 0 mm 4 m/S 755 mmHg 22%
    14:00 +39°C° 0 mm 5 m/S 754 mmHg 24%
    15:00 +36°C° 0 mm 5 m/S 754 mmHg 30%
    16:00 +33°C° 0 mm 4 m/S 754 mmHg 35%
    17:00 +30°C° 0 mm 4 m/S 754 mmHg 41%
    18:00 +28°C° 0 mm 3 m/S 754 mmHg 49%
    19:00 +26°C° 0 mm 3 m/S 754 mmHg 57%
    20:00 +24°C° 0 mm 3 m/S 755 mmHg 65%
    21:00 +22°C° 0 mm 3 m/S 755 mmHg 72%
    22:00 +21°C° 0 mm 2 m/S 755 mmHg 79%
    23:00 +20°C° 0 mm 2 m/S 755 mmHg 86%

    21 Januar, Montag

    Zeit Temperatur Niederschläge Wind Luftdruck Luftfeuchtigkeit
    00:00 +20°C° 0 mm 2 m/S 754 mmHg 88%
    01:00 +20°C° 0 mm 2 m/S 754 mmHg 89%
    02:00 +19°C° 0 mm 3 m/S 753 mmHg 91%
    03:00 +19°C° 0 mm 3 m/S 753 mmHg 91%
    04:00 +19°C° 0 mm 3 m/S 754 mmHg 92%
    05:00 +19°C° 0 mm 3 m/S 754 mmHg 92%
    06:00 +20°C° 0 mm 3 m/S 754 mmHg 84%
    07:00 +21°C° 0 mm 3 m/S 755 mmHg 76%
    08:00 +23°C° 0 mm 4 m/S 755 mmHg 68%
    09:00 +25°C° 0 mm 4 m/S 755 mmHg 62%
    10:00 +26°C° 0 mm 4 m/S 755 mmHg 56%
    11:00 +27°C° 0 mm 4 m/S 754 mmHg 49%
    12:00 +27°C° 0 mm 5 m/S 754 mmHg 49%
    13:00 +27°C° 0 mm 5 m/S 754 mmHg 48%
    14:00 +27°C° 0 mm 5 m/S 754 mmHg 48%
    15:00 +26°C° 0 mm 6 m/S 754 mmHg 55%
    16:00 +23°C° 0 mm 6 m/S 754 mmHg 61%
    17:00 +22°C° 0 mm 6 m/S 754 mmHg 68%
    18:00 +21°C° 0 mm 5 m/S 754 mmHg 74%
    19:00 +20°C° 0 mm 5 m/S 755 mmHg 79%
    20:00 +19°C° 0 mm 4 m/S 755 mmHg 84%
    21:00 +19°C° 0.1 mm 4 m/S 755 mmHg 84%
    22:00 +19°C° 0.1 mm 4 m/S 755 mmHg 84%
    23:00 +20°C° 0.1 mm 4 m/S 755 mmHg 83%
    Mehr zeigen